This demonstration page uses our WeatherBlox Daily Observations layout. Learn more.

Left ArrowRight Arrow

Hourly Observations for August 11, 2015

Temp ( °F °C ) Dew Point ( °F °C ) Humidity (%) Winds ( mph kmh ) Pressure ( in mb ) Visibility ( mi km ) Precip ( " mm )
12:15 am 00:15 Clear 68 20.2 65 18.2 88 88 SE 5 7 30.12 1020 10 16 N/A
12:35 am 00:35 Clear 68 20.2 65 18.1 88 88 SE 3 6 30.15 1021 10 16 N/A
12:55 am 00:55 Clear 67 19.7 64 17.8 89 89 SE 3 6 30.15 1021 10 16 N/A
1:15 am 01:15 Clear 66 18.7 63 17.3 92 92 E 3 6 30.15 1021 10 16 N/A
1:35 am 01:35 Clear 65 18.2 63 17.2 94 94 E 3 6 30.18 1022 10 16 N/A
1:55 am 01:55 Clear 64 18 63 17 94 94 Calm 30.18 1022 10 16 N/A
2:15 am 02:15 Clear 64 17.9 63 17 95 95 Calm 30.18 1022 7 11 N/A
2:35 am 02:35 Clear 64 17.6 62 16.8 95 95 E 5 7 30.15 1021 7 11 N/A
2:55 am 02:55 Clear 64 17.5 62 16.6 95 95 ENE 5 7 30.15 1021 7 11 N/A
3:15 am 03:15 Clear with Mist and Fog 63 17.3 62 16.6 96 96 ENE 3 6 30.15 1021 5 8 N/A
3:35 am 03:35 Clear with Mist and Fog 63 17 62 16.4 96 96 E 5 7 30.15 1021 5 8 N/A
3:55 am 03:55 Clear with Mist and Fog 63 17 61 16.3 96 96 E 6 9 30.15 1021 5 8 N/A
4:15 am 04:15 Clear 63 17.2 62 16.6 96 96 E 3 6 30.15 1021 7 11 N/A
4:35 am 04:35 Clear 63 17.2 62 16.6 96 96 Calm 30.15 1021 7 11 N/A
4:55 am 04:55 Clear 62 16.8 61 16.1 96 96 Calm 30.18 1022 10 16 N/A
5:15 am 05:15 Clear 62 16.5 60 15.7 95 95 Calm 30.18 1022 7 11 N/A
5:35 am 05:35 Partly Cloudy with Mist and Fog 61 16.2 60 15.5 96 96 Calm 30.18 1022 5 8 N/A
5:55 am 05:55 Clear with Mist and Fog 61 16.2 60 15.6 96 96 E 3 6 30.18 1022 5 8 N/A
6:35 am 06:35 Partly Cloudy 62 16.6 61 16 96 96 SW 5 7 30.18 1022 7 11 N/A
6:55 am 06:55 Mostly Cloudy 62 16.6 61 16 96 96 Calm 30.21 1023 7 11 N/A
7:10 am 07:10 Mostly Cloudy 63 17 62 16.4 96 96 Calm 30.21 1023 7 11 N/A
7:35 am 07:35 Partly Cloudy 64 17.6 63 17 96 96 Calm 30.21 1023 7 11 N/A
7:55 am 07:55 Partly Cloudy 65 18.1 64 17.5 96 96 Calm 30.21 1023 10 16 N/A
8:15 am 08:15 Sunny 66 18.9 64 17.9 94 94 Calm 30.18 1022 10 16 N/A
8:35 am 08:35 Mostly Cloudy 68 20.2 63 17.4 84 84 Calm 30.21 1023 10 16 N/A
8:55 am 08:55 Mostly Cloudy 70 20.9 65 18.1 84 84 Calm 30.21 1023 10 16 N/A
9:15 am 09:15 Partly Cloudy 71 21.6 64 18 80 80 S 3 6 30.21 1023 10 16 N/A
9:35 am 09:35 Mostly Cloudy 72 22.2 64 17.7 76 76 S 9 15 30.21 1023 10 16 N/A
9:55 am 09:55 Partly Cloudy 73 22.5 64 17.7 74 74 S 9 15 30.18 1022 10 16 N/A
10:15 am 10:15 Partly Cloudy 74 23.1 64 17.6 71 71 S 10 17 30.18 1022 10 16 N/A
10:35 am 10:35 Partly Cloudy 74 23.5 64 17.6 70 70 S 8 13 30.18 1022 10 16 N/A
10:55 am 10:55 Partly Cloudy 75 23.9 64 17.7 68 68 SSW 9 15 30.18 1022 10 16 N/A
11:15 am 11:15 Partly Cloudy 75 24.1 62 16.5 63 63 S 10 17 30.18 1022 10 16 N/A
11:35 am 11:35 Sunny 76 24.6 62 16.9 62 62 S 12 19 30.18 1022 10 16 N/A
11:55 am 11:55 Sunny 77 24.8 62 16.9 62 62 S 7 11 30.18 1022 10 16 N/A
12:15 pm 12:15 Partly Cloudy 78 25.5 64 17.5 61 61 S 9 15 30.12 1020 10 16 N/A
12:35 pm 12:35 Partly Cloudy 78 25.5 62 16.4 57 57 SSE 9 15 30.12 1020 10 16 N/A
12:55 pm 12:55 Sunny 78 25.6 62 16.4 57 57 SSE 8 13 30.12 1020 10 16 N/A
1:15 pm 13:15 Sunny 78 25.8 61 16.3 56 56 SSE 9 15 30.12 1020 10 16 N/A
1:35 pm 13:35 Sunny 79 26.1 62 16.5 56 56 SSE 12 19 30.12 1020 10 16 N/A
1:55 pm 13:55 Sunny 80 26.4 62 16.5 55 55 SE 8 13 30.12 1020 10 16 N/A
2:15 pm 14:15 Sunny 80 26.6 62 16.9 55 55 SSE 9 15 30.12 1020 10 16 N/A
2:35 pm 14:35 Partly Cloudy 80 26.6 63 17.3 57 57 S 12 19 30.09 1019 10 16 N/A
2:55 pm 14:55 Sunny 80 26.7 62 16.6 54 54 SSE 9 15 30.09 1019 10 16 N/A
3:15 pm 15:15 Sunny 80 26.9 62 16.9 54 54 S 10 17 30.09 1019 10 16 N/A
3:35 pm 15:35 Sunny 81 27 61 16.3 52 52 SSE 8 13 30.09 1019 10 16 N/A
3:55 pm 15:55 Sunny 81 27.1 64 17.5 56 56 SSE 10 17 30.09 1019 10 16 N/A
4:15 pm 16:15 Sunny 81 27.3 63 17.2 54 54 SSE 10 17 30.06 1018 10 16 N/A
4:35 pm 16:35 Sunny 81 27.3 63 17.2 54 54 SE 6 9 30.06 1018 10 16 N/A
4:55 pm 16:55 Sunny 81 27.2 62 16.7 53 53 SSE 9 15 30.06 1018 10 16 N/A
5:15 pm 17:15 Sunny 81 27.4 64 17.8 56 56 SSE 9 15 30.06 1018 10 16 N/A
5:35 pm 17:35 Sunny 81 27.2 64 17.6 56 56 SSE 9 15 30.06 1018 10 16 N/A
5:55 pm 17:55 Sunny 81 27.1 63 17.2 55 55 SSE 8 13 30.06 1018 10 16 N/A
6:15 pm 18:15 Sunny 81 27 64 17.6 56 56 SSE 10 17 30.06 1018 10 16 N/A
6:35 pm 18:35 Sunny 80 26.9 62 16.6 53 53 SE 8 13 30.06 1018 10 16 N/A
6:55 pm 18:55 Sunny 80 26.5 63 17.1 56 56 SE 8 13 30.06 1018 10 16 N/A
7:15 pm 19:15 Sunny 79 26.1 63 17.3 58 58 SE 10 17 30.06 1018 10 16 N/A
7:35 pm 19:35 Sunny 79 26 62 16.6 56 56 SE 9 15 30.06 1018 10 16 N/A
7:55 pm 19:55 Sunny 78 25.5 62 16.6 58 58 SE 7 11 30.06 1018 10 16 N/A
8:15 pm 20:15 Sunny 76 24.6 64 17.5 65 65 SE 7 11 30.09 1019 7 11 N/A
8:35 pm 20:35 Sunny 75 24 63 17 65 65 SE 6 9 30.09 1019 10 16 N/A
8:55 pm 20:55 Clear 74 23.2 63 17.3 70 70 SE 6 9 30.09 1019 10 16 N/A
9:15 pm 21:15 Clear 73 22.8 64 17.5 72 72 SE 6 9 30.12 1020 10 16 N/A
9:35 pm 21:35 Clear 73 22.5 64 17.5 73 73 SE 7 11 30.12 1020 10 16 N/A
9:55 pm 21:55 Clear 72 22.2 64 17.7 76 76 SE 7 11 30.15 1021 10 16 N/A
10:15 pm 22:15 Clear 72 22 64 17.6 76 76 SE 6 9 30.15 1021 10 16 N/A
10:35 pm 22:35 Clear 70 21 64 17.6 81 81 SSE 6 9 30.15 1021 10 16 N/A
10:55 pm 22:55 Clear 69 20.4 63 17.2 82 82 SE 7 11 30.15 1021 10 16 N/A
11:15 pm 23:15 Clear 68 20.2 62 16.9 81 81 SSE 7 11 30.15 1021 10 16 N/A
11:35 pm 23:35 Clear 67 19.7 62 16.8 83 83 SSE 7 11 30.15 1021 10 16 N/A
11:55 pm 23:55 Clear 67 19.6 62 16.6 83 83 SE 6 9 30.15 1021 10 16 N/A

Powered by AerisWeather